Regional Weather Roundup
Issued by NWS

Home | Current Version | Previous Version | Text Only | Print | Product List | Glossary On
Versions: 1 2 3 4 5 6 7 8 9 10 11 12 13 14 15 16 17 18 19 20 21 22 23 24 25 26 27 28 29 30 31 32 33 34 35 36 37 38 39 40 41 42 43 44 45 46 47 48 49 50
000
ASUS43 KDMX 102306
RWRIA

WEATHER ROUNDUP FOR IOWA
NATIONAL WEATHER SERVICE DES MOINES IA
600 PM CDT WED AUG 10 2022

NOTE: "FAIR" INDICATES FEW OR NO CLOUDS BELOW 12,000 FEET WITH NO
SIGNIFICANT WEATHER AND/OR OBSTRUCTIONS TO VISIBILITY.

* - THESE STATIONS ARE NOT NWS STATIONS...THUS NOT UNDER NWS
QUALITY CONTROL.  THEY ALSO DO NOT REPORT WEATHER SUCH
AS PRECIPITATION OR FOG.

IAZ001>003-012>014-020>022-031>034-043>046-110000-
   NORTHWEST IOWA

CITY           SKY/WX    TMP DP  RH WIND       PRES   REMARKS
CARROLL *      SUNNY     86  64  48 E5        30.15S HX  87
CHEROKEE *     SUNNY     88  65  45 S7        30.15F HX  90
DENISON *      SUNNY     86  70  58 S6        30.16F HX  90
LE MARS *      MOSUNNY   90  68  48 SE9       30.12F HX  93
MAURICE *      FAIR      88  70  55 SE10      30.13  HX  92
SHELDON *      SUNNY     86  72  62 VRB5      30.14S HX  92
SIOUX CITY     SUNNY     92  66  42 S8        30.12S HX  94
SPENCER        MOSUNNY   88  68  51 S7        30.16  HX  91
STORM LAKE *   SUNNY     84  70  61 SW5       30.17F HX  88
$$

IAZ055>058-069>071-079>083-090>094-110000-
   SOUTHWEST IOWA

CITY           SKY/WX    TMP DP  RH WIND       PRES   REMARKS
ATLANTIC *     SUNNY     88  68  51 W5        30.13S HX  91
AUDUBON *      MOSUNNY   88  64  45 CALM      30.17S HX  89
CLARINDA *     SUNNY     88  63  42 CALM      30.15F HX  88
COUNCIL BLFS * SUNNY     88  61  40 SE7       30.13  HX  88
CRESTON *      SUNNY     90  55  31 NE5       30.14F HX  88
HARLAN  *      SUNNY     88  70  55 CALM      30.15F HX  92
RED OAK *      SUNNY     90  64  43 VRB5      30.14F HX  91
SHENANDOAH *   SUNNY     88  63  42 SE5       30.12F HX  88
$$

IAZ047>049-059>061-072>074-084-110000-
   CENTRAL IOWA

CITY           SKY/WX    TMP DP  RH WIND       PRES   REMARKS
AMES           SUNNY     86  62  44 SE5       30.14S HX  86
ANKENY *       SUNNY     86  61  42 VRB6      30.15S HX  86
BOONE *        SUNNY     86  61  42 NE6       30.17F HX  86
CHARITON *     SUNNY     88  61  40 NE6       30.12  HX  88
DES MOINES     SUNNY     89  55  31 E9        30.14S HX  87
KNOXVILLE *    SUNNY     88  59  37 NE7       30.13F HX  87
MARSHALLTOWN   SUNNY     86  58  38 VRB3      30.14F HX  85
NEWTON *       SUNNY     86  57  37 VRB7      30.14S HX  85
PELLA *        SUNNY     87  59  38 CALM      30.14F HX  86
PERRY *        FAIR      90  58  33 E3        30.14F HX  88
$$

IAZ004>006-015-016-023>025-035-036-110000-
   NORTH CENTRAL IOWA

CITY           SKY/WX    TMP DP  RH WIND       PRES   REMARKS
ALGONA *       SUNNY     84  70  61 S6        30.15F HX  88
CLARION *      SUNNY     84  68  58 CALM      30.16F HX  87
ESTHERVILLE    SUNNY     84  71  65 S3        30.16  HX  89
FORT DODGE *   SUNNY     86  66  51 E7        30.16F HX  88
MASON CITY     SUNNY     84  66  54 W8        30.17F HX  86
FOREST CITY *  FAIR      82  68  61 S7        30.16S HX  85
WEBSTER CITY * SUNNY     86  68  54 VRB5      30.14F HX  89
IOWA FALLS *   FAIR      85  64  48 CALM      30.17F HX  87
$$

IAZ007>011-017>019-026>030-037>042-050>054-066-110000-
   NORTHEAST IOWA

CITY           SKY/WX    TMP DP  RH WIND       PRES   REMARKS
CEDAR RAPIDS   SUNNY     81  63  54 MISG      30.14F HX  82
CHARLES CITY * SUNNY     82  66  57 CALM      30.15F HX  85
CLINTON *      SUNNY     80  68  66 W5        30.14F HX  83
DECORAH *      SUNNY     81  70  69 W5        30.13F HX  84
DUBUQUE        SUNNY     81  66  60 W8        30.15F HX  83
OELWEIN *      SUNNY     81  66  61 CALM      30.15F HX  83
WATERLOO       SUNNY     85  63  47 NW6       30.13F HX  86
$$

IAZ064-065-067-068-078-110000-
   EAST CENTRAL IOWA

CITY           SKY/WX    TMP DP  RH WIND       PRES   REMARKS
DAVENPORT      SUNNY     81  65  58 NW5       30.15F HX  83
IOWA CITY      SUNNY     85  59  41 CALM      30.14F HX  84
MT. PLEASANT * SUNNY     82  70  65 E3        30.14F HX  86
MUSCATINE *    SUNNY     82  63  51 CALM      30.14F HX  83
QUAD CITIES    SUNNY     83  66  56 W7        30.12F HX  85
$$

IAZ062-063-075>077-085>089-095>099-110000-
   SOUTHEAST IOWA

CITY           SKY/WX    TMP DP  RH WIND       PRES   REMARKS
BURLINGTON     SUNNY     81  63  54 E6        30.14F HX  82
FAIRFIELD *    SUNNY     86  55  35 NE6       30.13F HX  84
FORT MADISON * CLOUDY    82  63  51 CALM      30.14S HX  83
KEOKUK *       SUNNY     84  61  45 VRB5      30.13F HX  84
OTTUMWA        SUNNY     86  58  38 NW6       30.13F HX  85
WASHINGTON *   SUNNY     84  63  48 NE5       30.13S HX  85
$$

ABBREVIATIONS USED IN REMARKS
   TC - TEMPERATURES IN CELSIUS
  WCI - WIND CHILL INDEX
   HX - HEAT INDEX
  VSB - VISIBILITY
$$




USA.gov is the U.S. government's official web portal to all federal, state and local government web resources and services.